Tracking 31027 objects as of 19-Jul-2025
HD Live streaming from Space Station
objects crossing your sky now

COSMOS 2251 DEB

Track COSMOS 2251 DEB now!
10-day predictions


NORAD ID: 37500
Int'l Code: 1993-036BMD
Perigee: 287.7 km
Apogee: 327.4 km
Inclination: 73.9 °
Period: 90.5 minutes
Semi major axis: 6678 km
RCS: 0.0001 m2 (small)
Launch date: June 16, 1993
Source: Commonwealth of Independent States (former USSR) (CIS)
Launch site: PLESETSK MISSILE AND SPACE COMPLEX (PKMTR)

Note: This is SATELLITE DEBRIS
Your satellite tracking list
NOAA 16 DEB
Track 1 satellite(s)




NASA's NSSDC Master Catalog

Two Line Element Set (TLE):
1 37500U 93036BMD 25197.67407085  .00161489  11140-4  50324-3 0  9994
2 37500  73.9342 197.4293 0029665  31.3826 328.9169 15.90671097874823
Source of the keplerian elements: AFSPC